Date String (YYYY-MM-DD hh:mm:ss) UTC,Instrument flags,Ambient pressure (hPa),Sample flow (lpm),Bypass flow (lpm),Sample temperature (°C),Ambient temperature (°C),ASC tube jacket temperature (°C),LED temperature (°C),Box temperature (°C),Sample RH (%),Span deviation,Mass concentration (μg/m³),Mass concentration (μg/m³),Mass concentration (μg/m³)
DateTimeUTC,F1_M11,P_M11,Q1_M11,Q2_M11,T1_M11,T2_M11,T3_M11,T4_M11,T5_M11,U1_M11,ZSPAN_M11,X0_M11,X2_M11,X1_M11
2023-04-09 17:00:00,,0835.8,5.00,0.00,24.6,23.4,00.0,32.9,26.3,14.0,0000.0,0008.36,0003.51,0002.35
2023-04-09 17:01:00,,0835.8,4.99,0.00,24.6,23.4,00.0,32.9,26.3,13.7,0000.0,0008.26,0003.46,0002.32
2023-04-09 17:02:00,,0835.8,4.99,0.00,24.7,23.4,00.0,32.9,26.3,13.6,0000.0,0008.27,0003.43,0002.31
2023-04-09 17:03:00,,0835.9,5.00,0.00,24.7,23.4,00.0,32.9,26.4,13.2,0000.0,0008.23,0003.41,0002.29
2023-04-09 17:04:00,,0835.6,5.00,0.00,24.7,23.4,00.0,32.9,26.4,13.9,0000.0,0008.21,0003.40,0002.26
2023-04-09 17:05:00,,0835.7,5.02,0.00,24.7,23.5,00.0,32.9,26.4,14.1,0000.0,0008.26,0003.38,0002.25
2023-04-09 17:06:00,,0835.6,5.00,0.00,24.7,23.5,00.0,32.9,26.5,13.7,0000.0,0008.38,0003.38,0002.23
2023-04-09 17:07:00,,0835.6,4.98,0.00,24.7,23.5,00.0,32.9,26.5,14.1,0000.0,0007.88,0003.31,0002.21
2023-04-09 17:08:00,,0835.7,5.00,0.00,24.8,23.5,00.0,33.0,26.5,14.1,0000.0,0007.87,0003.27,0002.21
2023-04-09 17:09:00,,0835.7,5.00,0.00,24.8,23.5,00.0,33.0,26.4,14.2,0000.0,0007.71,0003.30,0002.22
2023-04-09 17:10:00,,0835.8,5.00,0.00,24.8,23.5,00.0,33.0,26.5,14.5,0000.0,0008.43,0003.31,0002.24
2023-04-09 17:11:00,,0835.7,5.01,0.00,24.8,23.5,00.0,33.0,26.5,14.6,0000.0,0008.73,0003.36,0002.25
2023-04-09 17:12:00,,0835.6,5.00,0.00,24.8,23.6,00.0,33.0,26.5,14.5,0000.0,0008.75,0003.38,0002.26
2023-04-09 17:13:00,,0835.7,5.01,0.00,24.8,23.6,00.0,33.0,26.5,14.4,0000.0,0008.76,0003.42,0002.29
2023-04-09 17:14:00,,0835.8,5.00,0.00,24.8,23.6,00.0,33.0,26.5,14.7,0000.0,0008.71,0003.42,0002.31
2023-04-09 17:15:00,,0835.8,5.00,0.00,24.8,23.6,00.0,33.0,26.5,14.8,0000.0,0008.85,0003.42,0002.33
2023-04-09 17:16:00,,0835.7,4.99,0.00,24.9,23.6,00.0,33.1,26.6,14.2,0000.0,0009.02,0003.46,0002.34
2023-04-09 17:17:00,,0835.7,5.00,0.00,24.9,23.6,00.0,33.1,26.6,14.3,0000.0,0009.12,0003.50,0002.36
2023-04-09 17:18:00,,0835.6,4.99,0.00,24.9,23.6,00.0,33.1,26.6,14.5,0000.0,0009.19,0003.55,0002.37
2023-04-09 17:19:00,,0835.8,5.02,0.00,24.9,23.7,00.0,33.1,26.6,14.4,0000.0,0008.92,0003.57,0002.39
2023-04-09 17:20:00,,0835.7,5.00,0.00,24.9,23.7,00.0,33.1,26.6,14.2,0000.0,0009.13,0003.56,0002.38
2023-04-09 17:21:00,,0835.7,4.99,0.00,24.9,23.7,00.0,33.1,26.6,14.2,0000.0,0009.14,0003.61,0002.38
2023-04-09 17:22:00,,0835.7,4.99,0.00,24.9,23.7,00.0,33.1,26.6,14.3,0000.0,0009.31,0003.61,0002.39
2023-04-09 17:23:00,,0835.7,5.01,0.00,25.0,23.7,00.0,33.2,26.6,14.8,0000.0,0009.44,0003.65,0002.41
2023-04-09 17:24:00,,0835.7,5.01,0.00,25.0,23.7,00.0,33.2,26.7,15.2,0000.0,0009.78,0003.65,0002.45
2023-04-09 17:25:00,,0835.7,5.00,0.00,25.0,23.7,00.0,33.2,26.7,15.0,0000.0,0009.96,0003.71,0002.50
2023-04-09 17:26:00,,0835.7,5.00,0.00,25.0,23.7,00.0,33.2,26.7,15.2,0000.0,0010.26,0003.78,0002.56
2023-04-09 17:27:00,,0835.8,5.00,0.00,25.0,23.8,00.0,33.2,26.7,15.3,0000.0,0010.31,0003.84,0002.61
2023-04-09 17:28:00,,0835.8,5.00,0.00,25.0,23.8,00.0,33.2,26.7,14.8,0000.0,0010.16,0003.84,0002.67
2023-04-09 17:29:00,,0835.8,5.00,0.00,25.1,23.8,00.0,33.3,26.7,14.5,0000.0,0010.09,0003.84,0002.74
2023-04-09 17:30:00,,0835.8,5.00,0.00,25.1,23.8,00.0,33.3,26.7,14.5,0000.0,0010.51,0003.87,0002.77
2023-04-09 17:31:00,,0835.7,5.00,0.00,25.1,23.9,00.0,33.3,26.7,14.5,0000.0,0010.32,0003.88,0002.85
2023-04-09 17:32:00,,0835.8,5.00,0.00,25.1,23.9,00.0,33.3,26.7,14.4,0000.0,0010.30,0003.85,0002.89
2023-04-09 17:33:00,,0835.7,5.00,0.00,25.1,23.9,00.0,33.3,26.7,14.0,0000.0,0009.90,0003.84,0002.93
2023-04-09 17:34:00,,0835.6,5.00,0.00,25.1,23.9,00.0,33.3,26.7,13.6,0000.0,0009.70,0003.83,0002.97
2023-04-09 17:35:00,,0835.6,5.01,0.00,25.1,23.9,00.0,33.3,26.7,13.5,0000.0,0009.29,0003.85,0002.96
2023-04-09 17:36:00,,0835.6,5.00,0.00,25.1,23.9,00.0,33.3,26.8,13.7,0000.0,0009.09,0003.83,0002.95
2023-04-09 17:37:00,,0835.6,5.00,0.00,25.1,23.9,00.0,33.3,26.8,13.6,0000.0,0008.84,0003.81,0002.92
2023-04-09 17:38:00,,0835.6,5.00,0.00,25.1,23.9,00.0,33.4,26.8,13.3,0000.0,0008.93,0003.81,0002.90
2023-04-09 17:39:00,,0835.6,4.99,0.00,25.2,23.9,00.0,33.4,26.8,13.5,0000.0,0008.97,0003.82,0002.88
2023-04-09 17:40:00,,0835.5,4.99,0.00,25.2,23.9,00.0,33.4,26.8,13.6,0000.0,0009.07,0003.86,0002.85
2023-04-09 17:41:00,,0835.6,5.01,0.00,25.2,23.9,00.0,33.4,26.8,14.1,0000.0,0008.76,0003.84,0002.83
2023-04-09 17:42:00,,0835.5,5.01,0.00,25.2,23.9,00.0,33.4,26.8,13.8,0000.0,0008.66,0003.83,0002.81
2023-04-09 17:43:00,,0835.6,5.00,0.00,25.2,23.9,00.0,33.4,26.9,14.3,0000.0,0008.00,0003.82,0002.82
2023-04-09 17:44:00,,0835.5,4.99,0.00,25.2,23.9,00.0,33.4,26.9,14.3,0000.0,0007.76,0003.83,0002.86
2023-04-09 17:45:00,,0835.6,5.00,0.00,25.2,24.0,00.0,33.5,26.9,14.3,0000.0,0007.78,0003.84,0002.89
2023-04-09 17:46:00,,0835.6,5.00,0.00,25.3,24.0,00.0,33.5,26.9,14.2,0000.0,0007.86,0003.84,0002.94
2023-04-09 17:47:00,,0835.6,5.00,0.00,25.3,24.0,00.0,33.5,26.9,14.1,0000.0,0008.02,0003.87,0002.97
2023-04-09 17:48:00,,0835.6,5.00,0.00,25.3,24.0,00.0,33.5,27.0,14.1,0000.0,0008.21,0003.96,0003.04
2023-04-09 17:49:00,,0835.6,5.00,0.00,25.3,24.1,00.0,33.5,27.0,14.3,0000.0,0008.60,0003.98,0003.11
2023-04-09 17:50:00,,0835.6,5.00,0.00,25.3,24.1,00.0,33.5,27.0,14.3,0000.0,0008.70,0004.03,0003.19
2023-04-09 17:51:00,,0835.7,5.00,0.00,25.3,24.1,00.0,33.5,27.0,14.1,0000.0,0008.68,0004.06,0003.26
2023-04-09 17:52:00,,0835.6,4.99,0.00,25.3,24.1,00.0,33.5,27.0,13.9,0000.0,0009.22,0004.18,0003.32
2023-04-09 17:53:00,,0835.6,5.00,0.00,25.4,24.1,00.0,33.6,27.0,13.0,0000.0,0009.80,0004.23,0003.33
2023-04-09 17:54:00,,0835.5,5.00,0.00,25.4,24.1,00.0,33.6,27.1,13.5,0000.0,0010.14,0004.24,0003.32
2023-04-09 17:55:00,,0835.6,5.00,0.00,25.4,24.1,00.0,33.6,27.1,14.5,0000.0,0010.26,0004.28,0003.32
2023-04-09 17:56:00,,0835.6,5.01,0.00,25.4,24.2,00.0,33.6,27.1,14.3,0000.0,0010.40,0004.32,0003.35
2023-04-09 17:57:00,,0835.6,5.00,0.00,25.4,24.2,00.0,33.6,27.1,14.1,0000.0,0010.46,0004.37,0003.35
2023-04-09 17:58:00,,0835.6,5.00,0.00,25.4,24.2,00.0,33.6,27.1,14.3,0000.0,0010.39,0004.37,0003.38
2023-04-09 17:59:00,,0835.7,5.00,0.00,25.5,24.2,00.0,33.7,27.1,14.0,0000.0,0010.17,0004.32,0003.38
